Showing default

ICEYE-X71, 68494

Orbit data source: Space-Track

ICEYE-X71, 68494 is a payload satellite owned by ICEYE (FI) in SSO that was launched on Mon, 30 Mar 2026 UTC via an FALCON 9 launch vehicle from the Air Force Western Test Range (AFWTR). Payload-class satellites include a variety of spacecraft equipped with specific instruments for various scientific and technological missions. These include communications satellites like Starlink; space stations such as the ISS; scientific satellites like the Hubble; Earth observation satellites from companies like Planet Labs, Umbra, and HawkEye 360; GPS; miniature CubeSats for education and research; and military/defense satellites.

Loading next visibility...
Identifier
68494, 2026-067CG
Orbit
SSO
Country
Flag of FIFI / FIN
Related business
Manufacturer
ICEYE
Mission
Operational spacecraft
Bus & Motor
ICEYE, Unknown motor
Mass
120 kg wet, 120 kg dry
Launch date (UTC)
2026-03-30 (3 months ago)
Launch vehicle
FALCON 9
Launch site
Air Force Western Test Range (AFWTR)
Object type
Payload
Rocket body
Debris
Shape & HBR
Unknown shape, 0.7 m
Radar Cross Section
Medium (>0.1 m² and <1 m²)

Expand to show TLE details & history
Last TLE update: 2 days ago

TLE from 2 days ago
0 ICEYE-X71
1 68494U 26067CG  26171.34857552  .00002071  00000-0  21147-3 0  9996
2 68494  97.7608 129.5350 0003142  47.5700 312.5784 14.91678262 12197
Epoch: 2026-06-20T08:21Z
TLE epoch observation values (Epoch: 2026-06-20T08:21:56.924Z)
Latitude
-0.00006°
Longitude
95.48334°
Altitude
594.262 km
Speed
7.564 km/s
True Right ascension
08h 38m 08s
True Declination
0° 00' 00"
Sunlit
Object was in daylight at epoch
Visualization orbit readout
Latitude
Unknown
Longitude
Unknown
Altitude
Unknown
Speed
Unknown
Apparent Right ascension
Unknown
Apparent Declination
Unknown
Sunlit
N/A
Visualization observer readout
Local Sidereal Time
09:12:37
Azimuth
Unknown
Elevation
Unknown
Doppler factor
Unknown
Orbital elements
Apogee altitude
591.911 km
Perigee altitude
587.532 km
Semi-major axis
6,967.858 km
Eccentricity
0.00031
Inclination
97.7608°
RAAN
129.535°
Arg. of periapsis
47.57°
True anomaly
312.55188°
Mean anomaly
312.5784°
Eccentric anomaly
312.56514°
Mean motion
3.73159 °/min
Orbital period
96.47 mins
BSTAR
0.00021147
Loading maneuver chart data...
Computing Atmospheric mass density...
Loading historical data...
Loading historical data...
Loading historical data...
Loading historical data...
Loading historical data...
Loading historical data...
Loading historical data...

Documentation

Showing up to 5 results
|